Lid_Strength_Index
-1 -1 -0 2 7 7 9 9 7 7 6 5 4 5 6 6 8 10 1 -0 -1 -1 -1 -1 -1 -1 -2 -2 -2 -2 -1 -2 -1 -1 -1 -1 -1 -1 -1 -1 -2 -2 -2 -2 -1 -2 -1 -1 -1
0 1 1 3 8 10 10 7 8 7 5 4 4 5 6 8 4 4 2 -0 -1 -1 -1 -1 -2 -2 -2 -1 -1 -1 -1 -1 -1 -1 -1 -1 -1 -1 -1 -1 -1 -2 -1 -1 -1 -1 -1 -1 -1
1 2 3 6 7 9 9 7 7 6 5 5 6 4 5 7 3 2 0 -1 -1 -1 -1 -2 -2 -2 -2 -1 -1 -1 -1 -1 -1 -1 -1 -1 -1 -1 -1 -1 -1 -1 -1 -1 -1 -1 -1 -2 -1
3 3 3 7 9 7 7 6 6 6 5 4 5 7 4 2 3 1 -0 -1 -1 -1 -1 -2 -2 -2 -2 -1 -1 -1 -1 -1 -1 -1 -1 -1 -1 -1 -1 -1 -1 -1 -1 -1 -1 -1 -2 -2 -2
4 4 7 8 8 7 6 6 5 6 6 5 5 7 6 3 1 0 -0 -1 -0 -1 -1 -1 -2 -2 -2 -1 -1 -1 -1 -1 -1 -1 -1 -1 -1 -1 -1 -1 -1 -1 -1 -1 -1 -1 -1 -1 -1
6 5 8 9 8 7 6 5 5 6 5 5 5 6 6 2 1 0 -0 -0 -1 -1 -1 -2 -1 -2 -2 -2 -1 -1 -1 -1 -1 -1 -1 -1 -1 -1 -1 -1 -1 -1 -1 -1 -1 -1 -1 -1 -1
6 6 7 7 7 7 7 4 6 6 6 6 4 7 5 3 1 0 -0 -1 -1 -1 -1 -1 -1 -1 -1 -2 -2 -1 -1 -1 -1 -1 -1 -1 -1 -1 -1 -1 -1 -1 -1 -1 -1 -1 -1 -1 -1
6 6 7 7 7 8 6 5 4 5 6 3 3 7 7 3 1 0 -0 -0 -0 -0 -0 -1 -1 -1 -1 -1 -1 -1 -1 -1 -1 -1 -1 -1 -1 -1 -1 -2 -1 -1 -1 -1 -1 -1 -1 -1 -2
4 8 8 7 7 7 5 6 4 3 5 5 4 4 3 1 1 1 1 1 0 0 -0 -1 -1 -1 -1 -1 -1 -2 -1 -1 -1 -1 -1 -2 -2 -2 -2 -2 -1 -1 -1 -1 -1 -1 -2 -2 -2
6 7 7 5 5 5 5 5 5 5 6 6 5 3 2 2 2 2 2 2 1 1 -0 -1 -1 -1 -1 -1 -2 -2 -2 -2 -2 -2 -2 -2 -2 -2 -2 -2 -1 -1 -1 -1 -1 -1 -2 -2 -2
6 7 5 6 6 4 5 5 4 6 7 5 6 5 3 2 2 2 2 1 1 0 -0 -1 -1 -1 -1 -1 -1 -2 -1 -2 -2 -2 -2 -2 -2 -2 -2 -2 -2 -2 -1 -2 -2 -2 -2 -1 -1
7 5 4 5 4 5 5 5 6 5 6 4 4 4 3 3 3 2 2 1 1 1 0 -1 -1 -1 -1 -1 -1 -2 -1 -2 -2 -2 -2 -2 -1 -2 -2 -1 -2 -2 -2 -2 -2 -1 -2 -2 -2
7 6 5 4 4 5 5 6 6 6 4 3 3 4 4 3 2 2 1 1 1 1 0 -0 -1 -1 -1 -1 -1 -2 -2 -2 -2 -2 -2 -2 -2 -2 -2 -2 -2 -2 -2 -1 -1 -1 -1 -1 -1
6 6 5 5 5 5 6 6 5 5 4 4 4 4 4 3 3 2 2 1 1 1 0 -0 -0 -1 -1 -1 -1 -1 -2 -2 -2 -1 -1 -1 -2 -2 -2 -2 -1 -1 -1 -1 -1 -1 -1 -1 -1
4 6 6 6 6 6 5 8 8 5 4 5 5 5 6 4 3 2 2 2 2 1 2 1 -0 -0 -0 -0 -0 -0 -0 -0 0 0 0 0 -0 -1 -1 -1 -1 0 0 0 0 -0 -0 -1 -1
6 5 8 6 6 6 6 9 6 5 5 6 5 6 7 8 5 3 3 2 2 2 2 2 2 1 1 1 1 1 1 1 1 1 2 2 2 1 1 1 2 2 2 2 2 2 2 1 1
6 8 8 8 6 7 7 8 6 5 5 6 5 5 7 6 8 6 5 4 4 3 3 3 2 2 2 2 2 2 2 2 2 2 3 3 3 3 3 3 3 3 3 4 4 4 3 4 4
8 8 8 8 7 7 8 8 6 5 5 6 5 5 6 7 7 6 6 5 4 3 3 2 2 2 2 2 2 3 3 3 3 4 4 4 4 4 3 4 4 5 6 6 5 3 4 4 5
8 7 8 6 5 8 8 8 7 6 6 6 6 5 5 4 4 6 6 5 4 3 2 2 2 2 2 2 2 3 4 5 6 6 6 6 6 6 5 6 5 6 6 5 4 4 4 5 4
8 8 8 6 6 7 7 8 6 6 6 5 6 5 5 4 5 6 5 5 5 4 3 3 2 2 2 2 1 2 5 6 7 7 7 6 6 6 6 6 6 5 6 6 5 5 5 4 3
8 8 8 8 6 7 8 9 7 6 6 5 5 4 4 4 5 6 6 6 5 5 4 3 2 1 0 1 2 3 4 5 7 7 7 7 6 6 5 6 6 6 6 7 6 6 4 5 5
8 6 7 7 8 10 7 11 8 7 7 6 5 5 5 4 3 4 5 6 6 6 4 3 1 0 0 0 1 2 3 5 6 7 7 7 6 7 6 7 7 6 7 7 7 6 5 4 6
7 6 6 7 8 8 8 10 8 6 7 7 6 5 4 4 3 4 5 5 6 5 3 2 1 1 1 1 1 2 3 5 6 6 6 5 6 6 7 6 6 6 7 7 6 5 5 6 6
5 6 7 7 8 11 9 9 9 8 6 5 4 4 4 4 3 3 4 5 5 4 4 3 3 3 3 3 3 3 4 4 5 5 6 6 6 6 6 5 5 5 5 5 6 5 5 5 5
6 8 11 12 12 12 8 9 8 6 5 5 5 4 4 3 3 3 5 6 6 5 5 4 4 4 4 4 4 4 4 4 4 5 5 6 6 6 6 5 5 5 5 5 5 6 6 6 6
7 8 11 14 13 12 8 11 9 6 5 5 4 4 4 4 3 3 4 6 6 5 5 5 4 4 4 4 4 4 4 5 6 5 5 6 6 6 5 6 6 6 6 6 6 7 7 6 6
8 10 7 10 9 11 10 8 7 6 6 6 5 5 5 4 3 4 4 5 5 5 5 5 5 5 4 4 4 5 5 5 6 6 5 5 5 6 6 7 7 7 7 7 6 8 7 7 7
7 6 11 10 15 16 11 10 10 9 8 7 6 6 5 4 3 4 5 5 5 5 5 5 5 5 5 5 5 5 5 5 6 6 6 6 5 5 6 8 8 8 7 7 7 7 7 7 8
8 10 9 9 11 15 15 12 8 8 7 7 6 5 5 4 4 4 4 4 5 5 5 5 5 5 5 5 5 5 6 6 7 7 7 7 6 5 6 7 8 8 7 7 7 7 7 8 7
7 8 8 12 13 11 12 12 7 7 6 6 6 5 4 4 5 5 5 5 6 6 6 6 5 6 6 6 7 7 8 9 8 9 8 7 6 6 6 7 8 8 8 7 7 7 7 7 7